Home > Time Zones > World Clock > Weather > Italy > Parma > Past weeks

Flag for Italy Weather past 2 weeks in Parma, Italy

Now
82 °F

Sunny.


Feels Like: 83 °F
Forecast: 62 / 81 °F
Wind: 3 mph from North

Location: Parma

Current Time: Aug 27, 2014 at 7:41:10 PM

Latest Report: Aug 27, 2014 at 6:50 PM


Visibility: 10 mi

Pressure: 29.83 "Hg

Humidity: 51%

Dew point: 63 °F

Location of ParmaLocation

Historic Weather in Parma — Graph

°F

Parma temperature yesterday

Maximum temperature yesterday: 73 °F (at 3:50 PM)
Minimum temperature yesterday: 59 °F (at 6:00 AM)
Average temperature yesterday: 70 °F

Past Weeks' High & Low Weather Summary

 TemperatureHumidityPressure
High88 °F (Aug 12, 5:50 PM)100% (Aug 20, 6:00 AM)30.12 "Hg (Aug 20, 6:00 AM)
Low55 °F (Aug 17, 6:00 AM)32% (Aug 17, 3:50 PM)29.68 "Hg (Aug 13, 5:50 PM)
Average71 °F70%29.93 "Hg
* Reported Aug 12 5:50 PM — Aug 27 5:50 PM, Parma, Weather by CustomWeather, © 2014

Note: Actual official high and low records may vary slightly from our data, if they occured in-between our weather recording intervals... More about our weather records

Advertising

Parma weather history for previous 24 hours

 ConditionsComfort  
Time TempWeatherWind HumidityBarometerVisibility
5:50 PM
Aug 27
84 °FPassing clouds.6 mph51%29.80 "HgN/A
4:50 PM84 °FPassing clouds.5 mph48%29.80 "HgN/A
3:50 PM84 °FPassing clouds.6 mph51%29.83 "HgN/A
2:50 PM82 °FSunny.5 mph55%29.83 "Hg10 mi
1:50 PM81 °FSunny.3 mph51%29.83 "Hg10 mi
12:50 PM79 °FPassing clouds.5 mph54%29.86 "HgN/A
11:50 AM75 °FPassing clouds.5 mph69%29.86 "HgN/A
10:50 AM73 °FPassing clouds.6 mph69%29.86 "HgN/A
9:50 AM72 °FClear.7 mph73%29.86 "Hg5 mi
8:50 AM70 °FClear.3 mph83%29.83 "Hg4 mi
7:50 AM68 °FFog.2 mph88%29.83 "Hg3 mi
6:50 AM66 °FFog.3 mph94%29.83 "Hg3 mi
6:00 AM66 °FPassing clouds.2 mph94%29.83 "Hg5 mi
11:50 PM
Aug 26
68 °FPassing clouds.3 mph88%29.83 "HgN/A
10:50 PM70 °FPassing clouds.2 mph83%29.83 "HgN/A
9:50 PM72 °FPassing clouds.1 mph73%29.86 "HgN/A
8:50 PM72 °FPartly sunny.6 mph73%29.83 "HgN/A
7:50 PM73 °FScattered clouds.7 mph69%29.83 "HgN/A
Weather by CustomWeather, © 2014

See weather overviewHow to use our weather pages